STARLINK-31965, 59888

Orbit data source: Space-Track

STARLINK-31965, 59888 is a payload satellite owned by SpaceX/Seattle (US) in LEO that was launched on Tue, 28 May 2024 UTC via an FALCON 9 launch vehicle from the Air Force Eastern Test Range (AFETR). Payload-class satellites include a variety of spacecraft equipped with specific instruments for various scientific and technological missions. These include communications satellites like Starlink; space stations such as the ISS; scientific satellites like the Hubble; Earth observation satellites from companies like Planet Labs, Umbra, and HawkEye 360; GPS; miniature CubeSats for education and research; and military/defense satellites.

Loading next visibility...
Identifier
59888, 2024-100D
Orbit
LEO
Last TLE update
5 hours ago
Origin
Manufacturer
SpaceX/Seattle
Mission
Operational spacecraft
Bus & Motor
STARLINK V2M, Unknown motor
Mass
730 kg wet, ~700 kg dry
Launch date (UTC)
2024-05-28 (11 months ago)
Launch vehicle
FALCON 9
Launch site
Air Force Eastern Test Range (AFETR)
Object type
Payload
Rocket body
Debris
Shape & HBR
Unknown
Radar Cross Section
Large (>1 m²)

Expand to show TLE details & history

TLE from 5 hours ago
0 STARLINK-31965
1 59888U 24100D   25129.17783641  .00002972  00000-0  11748-3 0  9995
2 59888  43.0022  45.2926 0001520 258.4292 101.6389 15.27582100 54489
Epoch: 2025-05-09T04:16Z
Definitive object data (Epoch: 2025-05-09T04:16:05.065Z)
Latitude
-0.00004°
Longitude
114.03374°
Altitude
483.029 km
Speed
7.626 km/s
True Right ascension
03h 01m 10s
True Declination
0° 00' 00"
Sunlit
Object was in daylight at TLE epoch
Visualization TLE readout
Latitude
35.99934°
Longitude
163.64622°
Altitude
485.666 km
Speed
7.627 km/s
Apparent Right ascension
05h 53m 15s
Apparent Declination
0° 18' 58"
Sunlit
Object is in daylight
Visualization observer readout
Local Sidereal Time
17:23:18
Azimuth
348.352° N
Elevation
-49.816°
Doppler factor
1
Orbital elements
Apogee altitude
486.031 km
Perigee altitude
483.944 km
Semi-major axis
6,863.125 km
Eccentricity
0.000152
Inclination
43.0022°
RAAN
45.2926°
Arg. of periapsis
258.4292°
True anomaly
101.65596°
Mean anomaly
101.6389°
Eccentric anomaly
101.64743°
Mean motion
3.81734 °/min
BSTAR
0.00011748
Orbital period
94.31 mins
Loading maneuver chart data...
Loading SW <> Apogee altitude chart data...
Loading historical data...
Loading historical data...
Loading historical data...
Loading historical data...
Loading historical data...
Loading historical data...
Loading historical data...

STARLINK-31965 Visibility forecast

Observer location: undefined°, undefined°

Span
Click to sort rows by Start time (UTC) header in descending order
Start Az.
Max El. time (UTC)
Max El. Az.
Max El.
End time (UTC)
End Az.
6 mins2025-05-09 21:44:01.008Z221.581° SW2025-05-09 21:47:01.008Z166.317° S32.935°2025-05-09 21:50:01.008Z85.923° E
5 mins2025-05-09 23:24:01.008Z271.582° WNW2025-05-09 23:26:01.008Z328.16° NNW41.596°2025-05-09 23:29:01.008Z68.159° E
6 mins2025-05-10 01:03:01.008Z293.512° NW2025-05-10 01:05:01.008Z338.087° N37.951°2025-05-10 01:09:01.008Z85.165° E
6 mins2025-05-10 02:42:01.008Z280.589° WNW2025-05-10 02:44:01.008Z241.905° WSW39.998°2025-05-10 02:48:01.008Z122.932° SE
|